FW8640 Weather Reports


Display with metric or nautical units.
time (UTC)temp
F
wind
direction
speed
MPH
gust
MPH
rain 1hr
in
rain 24hr
in
rain mn
in
humidity
%
barometer
mb
20260506143040 72 225 1.0 6.0 0.00 0.00 0.00 63 1015.6
20260506142039 72 225 3.0 9.0 0.00 0.00 0.00 63 1015.7
20260506141017 73 225 6.0 10.0 0.00 0.00 0.00 61 1015.7
20260506140018 74 203 4.0 11.0 0.00 0.00 0.00 59 1015.7
20260506135019 75 203 3.0 7.0 0.00 0.00 0.00 55 1015.6
20260506134017 75 203 2.0 8.0 0.00 0.00 0.00 55 1015.4
20260506133039 74 203 3.0 9.0 0.00 0.00 0.00 53 1015.6
20260506132018 75 203 2.0 10.0 0.00 0.00 0.00 55 1015.8
20260506131019 75 203 3.0 9.0 0.00 0.00 0.00 56 1016.0
20260506130019 75 203 2.0 7.0 0.00 0.00 0.00 56 1016.0
20260506125123 75 203 2.0 8.0 0.00 0.00 0.00 54 1016.1
20260506124018 76 180 2.0 8.0 0.00 0.00 0.00 52 1016.3
20260506123040 76 180 1.0 4.0 0.00 0.00 0.00 52 1016.4
20260506122019 76 180 2.0 7.0 0.00 0.00 0.00 49 1016.5
20260506121017 76 180 2.0 7.0 0.00 0.00 0.00 51 1016.6
20260506120018 76 180 1.0 4.0 0.00 0.00 0.00 50 1016.7
20260506115017 77 180 1.0 2.0 0.00 0.00 0.00 47 1016.6
20260506114017 76 0.0 5.0 0.00 0.00 0.00 46 1016.7
20260506113017 77 0.0 2.0 0.00 0.00 0.00 45 1016.7
20260506112019 76 0.0 1.0 0.00 0.00 0.00 46 1016.8
20260506111019 75 0.0 2.0 0.00 0.00 0.00 48 1016.9
20260506110018 74 180 1.0 6.0 0.00 0.00 0.00 47 1017.0
20260506105019 74 180 5.0 10.0 0.00 0.00 0.00 43 1017.0
20260506104020 74 180 1.0 7.0 0.00 0.00 0.00 43 1017.0
20260506103019 75 180 2.0 6.0 0.00 0.00 0.00 39 1017.0
20260506102019 75 180 1.0 4.0 0.00 0.00 0.00 38 1016.9
20260506101019 74 0.0 2.0 0.00 0.00 0.00 43 1017.0
20260506100019 74 180 1.0 5.0 0.00 0.00 0.00 46 1017.1
20260506095020 75 180 3.0 7.0 0.00 0.00 0.00 45 1017.2
20260506094019 76 180 2.0 7.0 0.00 0.00 0.00 41 1017.2
20260506093020 76 0.0 2.0 0.00 0.00 0.00 39 1017.2
20260506092020 75 0.0 1.0 0.00 0.00 0.00 40 1017.4
20260506091022 74 0.0 4.0 0.00 0.00 0.00 45 1017.2
20260506090019 73 0.0 2.0 0.00 0.00 0.00 48 1017.3
20260506085040 73 0.0 3.0 0.00 0.00 0.00 56 1017.2
20260506084019 72 0.0 3.0 0.00 0.00 0.00 57 1017.3
20260506083019 71 0.0 4.0 0.00 0.00 0.00 59 1017.3
20260506082019 70 180 1.0 5.0 0.00 0.00 0.00 60 1017.3
20260506081042 70 0.0 2.0 0.00 0.00 0.00 61 1017.1
20260506073019 69 180 1.0 4.0 0.00 0.00 0.00 62 1017.2
20260506072041 69 0.0 1.0 0.00 0.00 0.00 63 1017.1
20260506071020 68 0.0 3.0 0.00 0.00 0.00 64 1017.1
20260506062018 65 180 1.0 4.0 0.00 0.00 0.00 68 1017.4
20260506061103 65 0.0 0.0 0.00 0.00 0.00 68 1017.3
20260506051019 63 0.0 0.0 0.00 0.00 0.00 72 1017.2
20260506045018 61 0.0 0.0 0.00 0.00 0.00 74 1017.0
20260506044019 60 0.0 0.0 0.00 0.00 0.00 75 1016.9
20260506043042 59 0.0 0.0 0.00 0.00 0.00 76 1016.7
20260506042042 58 0.0 0.0 0.00 0.00 0.00 76 1016.6
20260506041042 58 0.0 0.0 0.00 0.00 0.00 75 1016.6
20260506040019 58 0.0 0.0 0.00 0.00 0.00 75 1016.5
20260506035020 58 0.0 0.0 0.00 0.00 0.00 74 1016.4
20260506034020 58 0.0 0.0 0.00 0.00 0.00 74 1016.3
20260506033019 58 0.0 0.0 0.00 0.00 0.00 74 1016.4
20260506032019 58 0.0 0.0 0.00 0.00 0.00 74 1016.4
20260506031020 58 0.0 0.0 0.00 0.00 0.00 73 1016.4
20260506030018 58 0.0 0.0 0.00 0.00 0.00 73 1016.3
20260506025018 58 0.0 0.0 0.00 0.00 0.00 72 1016.3
20260506024018 58 0.0 0.0 0.00 0.00 0.00 71 1016.4
20260506023124 58 0.0 0.0 0.00 0.00 0.00 71 1016.4
20260506022018 58 0.0 0.0 0.00 0.00 0.00 70 1016.6
20260506021019 58 0.0 0.0 0.00 0.00 0.00 70 1016.4
20260506020021 58 0.0 0.0 0.00 0.00 0.00 70 1016.4
20260506015102 58 0.0 0.0 0.00 0.00 0.00 69 1016.3
20260506014041 58 0.0 0.0 0.00 0.00 0.00 69 1016.2
20260506013018 58 0.0 0.0 0.00 0.00 0.00 69 1016.1
20260506012018 59 0.0 0.0 0.00 0.00 0.00 68 1016.2
20260506011018 59 0.0 0.0 0.00 0.00 0.00 67 1016.2
20260506010041 59 0.0 0.0 0.00 0.00 0.00 65 1016.2
20260506005020 60 0.0 0.0 0.00 0.00 0.00 64 1016.2
20260506004041 60 0.0 0.0 0.00 0.00 0.00 64 1016.1
20260506003018 60 0.0 0.0 0.00 0.00 0.00 62 1016.0
20260506002018 60 0.0 0.0 0.00 0.00 0.00 61 1016.1
20260506001019 60 0.0 0.0 0.00 0.00 0.00 61 1016.0
20260506000018 61 0.0 0.0 0.00 0.00 0.00 60 1016.1
20260505235017 61 0.0 0.0 0.00 0.00 0.00 59 1015.9
20260505234019 61 0.0 0.0 0.00 0.00 0.00 59 1015.9
20260505233020 61 0.0 0.0 0.00 0.00 0.00 59 1015.9
20260505232018 62 0.0 0.0 0.00 0.00 0.00 58 1015.9
20260505231019 62 0.0 0.0 0.00 0.00 0.00 58 1015.9
20260505230019 62 0.0 0.0 0.00 0.00 0.00 58 1015.9
20260505225020 62 0.0 0.0 0.00 0.00 0.00 57 1015.9
20260505224019 62 0.0 0.0 0.00 0.00 0.00 56 1016.1
20260505223039 62 0.0 0.0 0.00 0.00 0.00 56 1016.1
20260505222017 63 0.0 0.0 0.00 0.00 0.00 55 1016.1
20260505221018 63 0.0 0.0 0.00 0.00 0.00 54 1016.0
20260505220017 63 0.0 0.0 0.00 0.00 0.00 54 1016.0
20260505215019 63 0.0 0.0 0.00 0.00 0.00 53 1016.0
20260505214017 64 0.0 0.0 0.00 0.00 0.00 52 1015.9
20260505213017 64 0.0 0.0 0.00 0.00 0.00 51 1016.0
20260505212019 64 0.0 0.0 0.00 0.00 0.00 50 1015.9
20260505211040 64 0.0 0.0 0.00 0.00 0.00 49 1015.9
20260505210019 64 0.0 0.0 0.00 0.00 0.00 48 1015.8
20260505205020 65 0.0 0.0 0.00 0.00 0.00 47 1015.6
20260505204018 65 0.0 0.0 0.00 0.00 0.00 47 1015.6
20260505203104 66 0.0 0.0 0.00 0.00 0.00 45 1015.4
20260505202019 66 0.0 0.0 0.00 0.00 0.00 45 1015.3
20260505201041 67 0.0 0.0 0.00 0.00 0.00 44 1015.3
20260505200018 67 0.0 0.0 0.00 0.00 0.00 43 1015.3
20260505195018 67 0.0 0.0 0.00 0.00 0.00 43 1015.1
20260505194019 68 0.0 0.0 0.00 0.00 0.00 43 1015.1
20260505193019 68 0.0 0.0 0.00 0.00 0.00 42 1014.8
20260505192040 69 0.0 0.0 0.00 0.00 0.00 42 1014.8
20260505191018 69 0.0 0.0 0.00 0.00 0.00 41 1014.7
20260505190020 70 0.0 0.0 0.00 0.00 0.00 39 1014.7
20260505185041 71 0.0 0.0 0.00 0.00 0.00 39 1014.6
20260505184020 73 0.0 0.0 0.00 0.00 0.00 39 1014.5
20260505183018 73 0.0 0.0 0.00 0.00 0.00 37 1014.4
20260505182020 73 0.0 0.0 0.00 0.00 0.00 37 1014.3
20260505181018 74 0.0 0.0 0.00 0.00 0.00 36 1014.0
20260505180018 74 0.0 0.0 0.00 0.00 0.00 37 1014.0
20260505175018 75 0.0 0.0 0.00 0.00 0.00 36 1014.1
20260505174018 75 0.0 0.0 0.00 0.00 0.00 37 1014.1
20260505173040 76 0.0 0.0 0.00 0.00 0.00 37 1014.1
20260505172019 76 0.0 3.0 0.00 0.00 0.00 36 1014.1
20260505171018 76 0.0 0.0 0.00 0.00 0.00 36 1013.9
20260505170018 77 0.0 3.0 0.00 0.00 0.00 35 1014.0
20260505165018 77 0.0 2.0 0.00 0.00 0.00 36 1014.2
20260505164018 78 0.0 2.0 0.00 0.00 0.00 35 1014.3
20260505163018 79 0.0 1.0 0.00 0.00 0.00 34 1014.1
20260505162020 79 0.0 4.0 0.00 0.00 0.00 33 1014.2
20260505161018 79 0.0 5.0 0.00 0.00 0.00 33 1014.0
20260505153018 80 203 1.0 7.0 0.00 0.00 0.00 38 1014.2
20260505152018 80 0.0 5.0 0.00 0.00 0.00 36 1014.3
20260505151017 80 203 1.0 5.0 0.00 0.00 0.00 35 1014.3